| time (UTC) | temp F | wind direction | speed knots | gust knots | rain 1hr in | rain 24hr in | rain mn in | humidity % | barometer mb |
| 20260503071540 | 53 | 0 | 0.0 | 0.0 | 0.00 | 0.00 | 0.00 | 63 | 1012.1 |
| 20260503054557 | 51 | 0 | 1.7 | 7.0 | 0.00 | 0.00 | 0.00 | 61 | 1012.5 |
| 20260503053037 | 51 | 0 | 0.0 | 7.0 | 0.00 | 0.00 | 0.00 | 63 | 1012.6 |
| 20260503051535 | 51 | 0 | 1.7 | 6.1 | 0.00 | 0.00 | 0.00 | 64 | 1012.6 |
| 20260503050043 | 51 | 259 | 0.9 | 6.1 | 0.00 | 0.00 | 0.00 | 64 | 1012.5 |
| 20260503044542 | 51 | 237 | 0.0 | 7.0 | 0.00 | 0.00 | 0.00 | 63 | 1012.3 |
| 20260503043050 | 50 | 234 | 4.3 | 7.8 | 0.00 | 0.00 | 0.00 | 65 | 1012.3 |
| 20260503041538 | 51 | 0 | 0.9 | 6.1 | 0.00 | 0.00 | 0.00 | 64 | 1012.3 |
| 20260503040039 | 51 | 0 | 0.9 | 9.6 | 0.00 | 0.00 | 0.00 | 65 | 1012.3 |
| 20260503034541 | 51 | 0 | 0.9 | 7.0 | 0.00 | 0.00 | 0.00 | 65 | 1012.4 |
| 20260503033034 | 51 | 246 | 1.7 | 9.6 | 0.00 | 0.00 | 0.00 | 65 | 1012.3 |
| 20260503031541 | 51 | 252 | 2.6 | 8.7 | 0.00 | 0.00 | 0.00 | 65 | 1012.3 |
| 20260503030041 | 51 | 239 | 2.6 | 11.3 | 0.00 | 0.00 | 0.00 | 66 | 1012.4 |
| 20260503024538 | 51 | 238 | 6.1 | 10.4 | 0.00 | 0.00 | 0.00 | 66 | 1012.5 |
| 20260503023037 | 52 | 218 | 6.1 | 11.3 | 0.00 | 0.00 | 0.00 | 64 | 1012.5 |
| 20260503021535 | 52 | 268 | 0.0 | 6.1 | 0.00 | 0.00 | 0.00 | 63 | 1012.4 |
| 20260503020034 | 51 | 277 | 0.0 | 3.5 | 0.00 | 0.00 | 0.00 | 66 | 1012.4 |
| 20260503014538 | 50 | 0 | 0.9 | 2.6 | 0.00 | 0.00 | 0.00 | 67 | 1012.7 |
| 20260503013042 | 50 | 0 | 0.0 | 0.0 | 0.00 | 0.00 | 0.00 | 69 | 1012.8 |
| 20260503011537 | 51 | 0 | 0.0 | 0.0 | 0.00 | 0.00 | 0.00 | 65 | 1012.9 |
| 20260503010038 | 51 | 0 | 0.0 | 2.6 | 0.00 | 0.00 | 0.00 | 66 | 1013.1 |
| 20260503004600 | 51 | 266 | 0.9 | 3.5 | 0.00 | 0.00 | 0.00 | 66 | 1013.4 |
| 20260503003045 | 51 | 0 | 0.0 | 2.6 | 0.00 | 0.00 | 0.00 | 68 | 1013.5 |
| 20260503001546 | 51 | 0 | 0.0 | 6.1 | 0.00 | 0.00 | 0.00 | 67 | 1013.6 |
| 20260503000044 | 51 | 302 | 1.7 | 7.8 | 0.00 | 0.00 | 0.00 | 69 | 1013.8 |
| 20260502234549 | 50 | 302 | 2.6 | 6.1 | 0.00 | 0.00 | 0.00 | 72 | 1013.8 |
| 20260502233041 | 49 | 0 | 0.0 | 0.0 | 0.00 | 0.00 | 0.00 | 73 | 1014.3 |
| 20260502231542 | 49 | 0 | 0.0 | 0.0 | 0.00 | 0.00 | 0.00 | 74 | 1014.3 |
| 20260502230040 | 49 | 0 | 0.0 | 0.0 | 0.00 | 0.00 | 0.00 | 73 | 1014.4 |
| 20260502224544 | 49 | 0 | 0.0 | 0.0 | 0.00 | 0.00 | 0.00 | 73 | 1014.5 |
| 20260502223042 | 49 | 0 | 0.0 | 0.0 | 0.00 | 0.00 | 0.00 | 74 | 1014.5 |
| 20260502221537 | 50 | 0 | 0.0 | 0.0 | 0.00 | 0.00 | 0.00 | 74 | 1014.6 |
| 20260502220039 | 50 | 0 | 0.0 | 0.0 | 0.00 | 0.00 | 0.00 | 74 | 1014.7 |
| 20260502214553 | 50 | 0 | 0.0 | 0.0 | 0.00 | 0.00 | 0.00 | 74 | 1014.8 |
| 20260502213039 | 50 | 0 | 0.0 | 0.0 | 0.00 | 0.00 | 0.00 | 73 | 1014.7 |
| 20260502211541 | 50 | 0 | 0.0 | 2.6 | 0.00 | 0.00 | 0.00 | 72 | 1014.9 |
| 20260502210048 | 51 | 0 | 0.0 | 3.5 | 0.00 | 0.00 | 0.00 | 71 | 1015.1 |
| 20260502204537 | 51 | 0 | 0.0 | 0.0 | 0.00 | 0.00 | 0.00 | 71 | 1015.0 |
| 20260502203046 | 51 | 0 | 0.0 | 0.0 | 0.00 | 0.00 | 0.00 | 70 | 1015.0 |
| 20260502201536 | 51 | 0 | 0.0 | 1.7 | 0.00 | 0.00 | 0.00 | 69 | 1014.8 |
| 20260502200044 | 52 | 0 | 0.0 | 2.6 | 0.00 | 0.00 | 0.00 | 69 | 1014.8 |
| 20260502194540 | 51 | 0 | 0.0 | 0.0 | 0.00 | 0.00 | 0.00 | 68 | 1014.8 |
| 20260502193042 | 52 | 0 | 0.0 | 0.0 | 0.00 | 0.00 | 0.00 | 71 | 1014.6 |
| 20260502191540 | 52 | 0 | 0.0 | 0.0 | 0.00 | 0.00 | 0.00 | 75 | 1014.5 |
| 20260502190043 | 53 | 0 | 0.0 | 0.9 | 0.00 | 0.00 | 0.00 | 74 | 1014.3 |
| 20260502184539 | 53 | 0 | 0.0 | 0.9 | 0.00 | 0.00 | 0.00 | 76 | 1014.3 |
| 20260502183039 | 54 | 0 | 0.0 | 0.0 | 0.00 | 0.00 | 0.00 | 77 | 1014.2 |
| 20260502181544 | 54 | 0 | 0.0 | 0.0 | 0.00 | 0.00 | 0.00 | 76 | 1014.2 |
| 20260502163048 | 59 | 0 | 0.0 | 4.3 | 0.00 | 0.00 | 0.00 | 71 | 1014.8 |
| 20260502161536 | 59 | 0 | 0.0 | 0.0 | 0.00 | 0.00 | 0.00 | 70 | 1014.9 |
| 20260502151553 | 60 | 0 | 0.0 | 6.1 | 0.00 | 0.00 | 0.00 | 69 | 1015.2 |
| 20260502123047 | 62 | 186 | 0.9 | 7.0 | 0.00 | 0.00 | 0.00 | 67 | 1016.6 |
| 20260502121540 | 63 | 0 | 2.6 | 7.0 | 0.00 | 0.00 | 0.00 | 65 | 1016.6 |
| 20260502114537 | 62 | 190 | 2.6 | 9.6 | 0.00 | 0.00 | 0.00 | 66 | 1016.9 |
| 20260502113036 | 62 | 188 | 2.6 | 7.8 | 0.00 | 0.00 | 0.00 | 65 | 1016.9 |
| 20260502111538 | 62 | 184 | 0.9 | 7.8 | 0.00 | 0.00 | 0.00 | 64 | 1017.2 |
| 20260502110039 | 62 | 0 | 1.7 | 8.7 | 0.00 | 0.00 | 0.00 | 64 | 1017.1 |
| 20260502104538 | 62 | 165 | 3.5 | 9.6 | 0.00 | 0.00 | 0.00 | 61 | 1017.4 |
| 20260502103037 | 62 | 180 | 1.7 | 7.8 | 0.00 | 0.00 | 0.00 | 63 | 1017.5 |
| 20260502101540 | 62 | 0 | 2.6 | 7.8 | 0.00 | 0.00 | 0.00 | 57 | 1017.6 |